Location: Goettingen
(51.5300°N, 9.9433°E)
Time: 12:38:13
(UTC+01:00)

ISS - Pass Details

Date: 21 November 2023
Orbit: 416 x 417 km, 51.6° (Epoch: 02 December)

Event Time Altitude Azimuth Distance (km) Brightness Sun altitude
Rises 18:13:28 0° 238° (WSW) 2,355 1.4 -16.6°
Reaches altitude 10° 18:15:35 10° 233° (SW) 1,494 0.0 -16.9°
Maximum altitude 18:18:50 49° 158° (SSE) 550 -3.3 -17.4°
Enters shadow 18:19:22 44° 125° (SE) 595 -3.4 -17.5°
